User: anonymous   Login
Location: Unspecified
(0.0000°N, 0.0000°E)
Time: 08:29:02
(UTC+00:00)
Language:

DOVE 4 - Orbit

View from above orbital plane
View from above orbital plane
View from above satellite
View from above satellite

Ground track
Ground track

The orbit data is extracted from the following two-line orbital elements,

1 39430U 13066Q   23088.98196087  .00003740  00000-0  65900-3 0  9991
2 39430  97.7882 344.7245 0145107 223.6214 135.3395 14.61429270497970
Epoch (UTC): 29 March 2023 23:34:01
Eccentricity: 0.0145107
inclination: 97.7882°
perigee height: 586 km
apogee height: 791 km
right ascension of ascending node: 344.7245°
argument of perigee: 223.6214°
revolutions per day: 14.61429270
mean anomaly at epoch: 135.3395°
orbit number at epoch: 49797

The dashed part of the orbit path shows where the satellite is in the earth's shadow,  

DLR